Regional Weather Roundup
Issued by NWS

Home | Current Version | Previous Version | Text Only | Print | Product List | Glossary On
Versions: 1 2 3 4 5 6 7 8 9 10 11 12 13 14 15 16 17 18 19 20 21 22 23 24 25 26 27 28 29 30 31 32 33 34 35 36 37 38 39 40 41 42 43 44 45 46 47 48 49 50
474
ASUS43 KLMK 281910
RWRKY
KENTUCKY REGIONAL WEATHER ROUNDUP
NATIONAL WEATHER SERVICE LOUISVILLE KY
300 PM EDT TUE MAR 28 2017

NOTE "FAIR" INDICATES FEW OR NO CLOUDS BELOW 12,000 FEET
WITH NO SIGNIFICANT WEATHER AND/OR OBSTRUCTIONS TO VISIBILITY.

KYZ001>023-026-027-061>063-070>075-282000-
WESTERN AND SOUTH CENTRAL KENTUCKY

CITY           SKY/WX    TMP DP  RH WIND       PRES   REMARKS
PADUCAH        CLOUDY    62  52  69 N6        30.05F
HENDERSON      CLOUDY    57  50  77 N6        30.04F
OWENSBORO      CLOUDY    59  54  82 NW8       30.05S
HOPKINSVILLE   CLOUDY    61  57  88 NW8       30.04S
BOWLING GREEN  CLOUDY    64  55  72 NW7       30.03S
GLASGOW        CLOUDY    63  54  72 W8        30.02S
$$

KYZ024-025-028>034-038-045-046-053-282000-
NORTH CENTRAL KENTUCKY

CITY           SKY/WX    TMP DP  RH WIND       PRES   REMARKS
LOUISVILLE/SDF PTSUNNY   65  51  60 N9        30.00F
LOUISVILLE/LOU CLOUDY    65  52  62 N9        30.01S
FORT KNOX      CLOUDY    63  53  69 NW7       30.00R
$$

KYZ035>037-039>044-047>052-055>060-089>105-282000-
NORTHEAST KENTUCKY

CITY           SKY/WX    TMP DP  RH WIND       PRES   REMARKS
LEXINGTON      CLOUDY    63  54  72 NW7       30.00S
COVINGTON      CLOUDY    60  53  77 NW13      30.01R
FRANKFORT      CLOUDY    63  52  67 N5        29.99S
$$

KYZ054-064>069-076>088-106>120-282000-
SOUTHEAST KENTUCKY

CITY           SKY/WX    TMP DP  RH WIND       PRES   REMARKS
JACKSON        CLOUDY    60  52  74 NW7       29.99F
LONDON         CLOUDY    66  51  58 W10       30.00S
SOMERSET       PTSUNNY   63  52  67 S7        30.01F
MIDDLESBORO    CLOUDY    65  51  61 W3        30.00S
MONTICELLO     CLOUDY    62  53  72 W10G17    30.03F
$$





USA.gov is the U.S. government's official web portal to all federal, state and local government web resources and services.